Home > Weather > San Jose > Past weeks

Flag for USA Past Weather in San Jose, California, USA — Yesterday and Last 2 Weeks

Now
75 °F

Passing clouds.


Feels Like: 78 °F
Forecast: 58 / 81 °F
Wind: 13 mph from West

Location: San Jose International Airport

Current Time: Jul 24, 2016 at 7:31:56 PM

Latest Report: Jul 24, 2016 at 6:53 PM


Visibility: 10 mi

Pressure: 29.86 "Hg

Humidity: 55%

Dew Point: 58 °F

Location of San JoseLocation

Past Weather in San Jose — Graph

°F

San Jose Temperature Yesterday

Maximum temperature yesterday: 88 °F (at 1:53 PM)
Minimum temperature yesterday: 60 °F (at 5:53 AM)
Average temperature yesterday: 72 °F

High & Low Weather Summary for the Past Weeks

 TemperatureHumidityPressure
High89 °F (Jul 13, 2:53 PM)84% (Jul 12, 4:53 AM)30.13 "Hg (Jul 12, 4:53 AM)
Low56 °F (Jul 10, 5:53 AM)26% (Jul 22, 1:53 PM)29.83 "Hg (Jul 16, 4:53 PM)
Average68 °F60%29.98 "Hg
* Reported Jul 9 5:53 PM — Jul 24 5:53 PM, San Jose, Weather by CustomWeather, © 2016

Note: Actual official high and low records may vary slightly from our data, if they occured in-between our weather recording intervals... More about our weather records

Advertising

San Jose Weather History for the Previous 24 Hours

Scroll right to see more
 ConditionsComfort  
Time TempWeatherWind HumidityBarometerVisibility
5:53 PM
Sun, Jul 24
79 °FPassing clouds.14 mph48%29.84 "Hg10 mi
4:53 PM82 °FPassing clouds.15 mph43%29.84 "Hg10 mi
3:53 PM84 °FPassing clouds.13 mph38%29.83 "Hg10 mi
2:53 PM85 °FPassing clouds.13 mph39%29.84 "Hg10 mi
1:53 PM84 °FPassing clouds.10 mph41%29.85 "Hg10 mi
12:53 PM82 °FPassing clouds.8 mph46%29.85 "Hg10 mi
11:53 AM80 °FPassing clouds.6 mph45%29.86 "Hg10 mi
10:53 AM78 °FPassing clouds.3 mph43%29.86 "Hg10 mi
9:53 AM72 °FPassing clouds.No wind55%29.86 "Hg10 mi
8:53 AM69 °FSunny.No wind61%29.87 "Hg10 mi
7:53 AM64 °FSunny.No wind73%29.86 "Hg10 mi
6:53 AM61 °FClear.No wind78%29.85 "Hg10 mi
5:53 AM61 °FClear.3 mph78%29.84 "Hg10 mi
4:53 AM61 °FClear.No wind78%29.83 "Hg10 mi
3:53 AM61 °FClear.No wind78%29.83 "Hg10 mi
2:53 AM62 °FClear.No wind78%29.84 "Hg10 mi
1:53 AM61 °FClear.No wind78%29.85 "Hg10 mi
12:53 AM62 °FClear.7 mph75%29.86 "Hg10 mi
11:53 PM
Sat, Jul 23
63 °FClear.6 mph75%29.87 "Hg9 mi
10:53 PM65 °FClear.7 mph73%29.88 "Hg10 mi
9:53 PM66 °FClear.10 mph68%29.87 "Hg10 mi
8:53 PM69 °FSunny.9 mph61%29.86 "Hg10 mi
7:53 PM74 °FSunny.9 mph52%29.85 "Hg10 mi
Weather by CustomWeather, © 2016

See weather overviewHow to use our weather pages